Hourly Data Report for October 30, 2016

All times are specified in Local Standard Time (LST). Add 1 hour to adjust for Daylight Saving Time where and when it is observed.

KITCHENER/WATERLOO
ONTARIO

43°27'39.000" N
80°22'43.000" W
321.60 m
6144239
71368
YKF

Download Data

Hourly Data (October 2016)
Hourly Data Report for October 30, 2016
Temp Definition
°C
Dew Point Temp Definition
°C
Rel Hum Definition
%
Wind Dir Definition
10's deg

Wind Spd Definition
km/h
Visibility Definition
km
Stn Press Definition
kPa
Hmdx Definition


Wind Chill Definition


Weather Definition


TIME
00:00 Legend Double Dagger 9.4 7.4 87 31 13 16.1 97.64     LegendNANA
01:00 Legend Double Dagger 9.0 7.3 89 30 8 16.1 97.64     LegendNANA
02:00 Legend Double Dagger 9.1 7.4 89 32 11 16.1 97.62     LegendNANA
03:00 Legend Double Dagger 9.2 7.2 87 32 13 16.1 97.64     LegendNANA
04:00 Legend Double Dagger 9.0 7.1 88   0 16.1 97.60     LegendNANA
05:00 Legend Double Dagger 8.3 7.0 91 LegendMM 4 16.1 97.62     LegendNANA
06:00 Legend Double Dagger 8.8 7.6 92 25 8 16.1 97.64     Rain
07:00 Legend Double Dagger 8.8 7.6 92 30 9 16.1 97.71     LegendNANA
08:00 Legend Double Dagger 8.1 6.4 89 35 17 16.1 97.75     Rain
09:00 Legend Double Dagger 7.6 6.2 91 34 11 16.1 97.77     Rain
10:00 Legend Double Dagger 7.2 6.2 93 32 15 16.1 97.77     Moderate Rain
11:00 Legend Double Dagger 7.1 5.3 88 34 21 16.1 97.82     LegendNANA
12:00 Legend Double Dagger 6.2 4.8 91 35 17 14.5 97.86     LegendNANA
13:00 Legend Double Dagger 6.4 3.9 84 32 22 16.1 97.88     LegendNANA
14:00 Legend Double Dagger 6.1 3.3 82 34 17 16.1 97.90     LegendNANA
15:00 Legend Double Dagger 6.2 2.5 77 33 21 16.1 97.97     LegendNANA
16:00 Legend Double Dagger 6.1 2.4 77 34 21 16.1 98.05     LegendNANA
17:00 Legend Double Dagger 5.7 1.8 76 33 22 16.1 98.13     LegendNANA
18:00 Legend Double Dagger 4.4 0.9 78 34 11 16.1 98.21     LegendNANA
19:00 Legend Double Dagger 2.2 0.3 87 32 8 16.1 98.30     LegendNANA
20:00 Legend Double Dagger 2.5 0.3 85 33 8 16.1 98.36     LegendNANA
21:00 Legend Double Dagger 0.5 -0.4 94 31 8 16.1 98.38     LegendNANA
22:00 Legend Double Dagger 0.5 -0.1 96 31 5 14.5 98.39     LegendNANA
23:00 Legend Double Dagger -0.1 -0.5 97 30 5 12.9 98.42   -2 LegendNANA

Notes on Data Quality.

Legend

  • E = Estimated
  • M = Missing
  • NA = Not Available
  • ‡ = Partner data that is not subject to review by the National Climate Archives
Date modified: